| time (UTC) | temp F | wind direction | speed MPH | gust MPH | rain 1hr in | rain 24hr in | rain mn in | humidity % | barometer mb |
| 20260505152014 | 80 | 254 | 5.0 | 14.0 | 0.00 | 0.00 | 0.00 | 45 | 1010.5 |
| 20260505151013 | 79 | 258 | 4.0 | 12.0 | 0.00 | 0.00 | 0.00 | 45 | 1010.5 |
| 20260505125014 | 65 | 254 | 0.0 | 3.0 | 0.00 | 0.00 | 0.00 | 67 | 1011.7 |
| 20260505124013 | 64 | 267 | 1.0 | 3.0 | 0.00 | 0.00 | 0.00 | 69 | 1011.7 |
| 20260505123014 | 63 | 248 | 2.0 | 6.0 | 0.00 | 0.00 | 0.00 | 71 | 1011.8 |
| 20260505122014 | 61 | 227 | 0.0 | 2.0 | 0.00 | 0.00 | 0.00 | 75 | 1011.8 |
| 20260505121014 | 59 | 204 | 0.0 | 0.0 | 0.00 | 0.00 | 0.00 | 78 | 1011.6 |
| 20260505120014 | 58 | 204 | 0.0 | 0.0 | 0.00 | 0.00 | 0.00 | 81 | 1011.7 |
| 20260505115014 | 56 | 204 | 0.0 | 0.0 | 0.00 | 0.00 | 0.00 | 83 | 1011.6 |
| 20260505114014 | 55 | 204 | 0.0 | 0.0 | 0.00 | 0.00 | 0.00 | 85 | 1011.5 |
| 20260505113013 | 54 | 204 | 0.0 | 0.0 | 0.00 | 0.00 | 0.00 | 85 | 1011.5 |
| 20260505112014 | 53 | 204 | 0.0 | 0.0 | 0.00 | 0.00 | 0.00 | 88 | 1011.4 |
| 20260505111013 | 52 | 204 | 0.0 | 0.0 | 0.00 | 0.00 | 0.00 | 88 | 1011.4 |
| 20260505102014 | 50 | 204 | 0.0 | 0.0 | 0.00 | 0.00 | 0.00 | 86 | 1011.1 |
| 20260505101014 | 50 | 204 | 0.0 | 0.0 | 0.00 | 0.00 | 0.00 | 85 | 1011.0 |
| 20260505100014 | 50 | 204 | 0.0 | 0.0 | 0.00 | 0.00 | 0.00 | 85 | 1010.7 |
| 20260505095013 | 50 | 204 | 0.0 | 0.0 | 0.00 | 0.00 | 0.00 | 85 | 1010.6 |
| 20260505094013 | 51 | 204 | 0.0 | 0.0 | 0.00 | 0.00 | 0.00 | 85 | 1010.4 |
| 20260505093013 | 51 | 204 | 0.0 | 0.0 | 0.00 | 0.00 | 0.00 | 85 | 1010.4 |
| 20260505092013 | 51 | 204 | 0.0 | 0.0 | 0.00 | 0.00 | 0.00 | 84 | 1010.5 |
| 20260505091014 | 51 | 204 | 0.0 | 0.0 | 0.00 | 0.00 | 0.00 | 84 | 1010.4 |
| 20260505090014 | 52 | 204 | 0.0 | 0.0 | 0.00 | 0.00 | 0.00 | 84 | 1010.6 |
| 20260505085013 | 52 | 204 | 0.0 | 0.0 | 0.00 | 0.00 | 0.00 | 83 | 1010.4 |
| 20260505084014 | 52 | 204 | 0.0 | 0.0 | 0.00 | 0.00 | 0.00 | 83 | 1010.3 |
| 20260505083013 | 53 | 204 | 0.0 | 0.0 | 0.00 | 0.00 | 0.00 | 82 | 1010.3 |
| 20260505082014 | 53 | 204 | 0.0 | 0.0 | 0.00 | 0.00 | 0.00 | 82 | 1010.3 |
| 20260505081013 | 53 | 204 | 0.0 | 0.0 | 0.00 | 0.00 | 0.00 | 82 | 1010.2 |
| 20260505080014 | 54 | 204 | 0.0 | 0.0 | 0.00 | 0.00 | 0.00 | 81 | 1010.1 |
| 20260505075014 | 54 | 204 | 0.0 | 0.0 | 0.00 | 0.00 | 0.00 | 80 | 1010.0 |
| 20260505074013 | 55 | 204 | 0.0 | 0.0 | 0.00 | 0.00 | 0.00 | 80 | 1010.0 |
| 20260505073013 | 55 | 204 | 0.0 | 0.0 | 0.00 | 0.00 | 0.00 | 79 | 1009.9 |
| 20260505072013 | 56 | 204 | 0.0 | 0.0 | 0.00 | 0.00 | 0.00 | 78 | 1010.0 |
| 20260505071014 | 56 | 204 | 0.0 | 0.0 | 0.00 | 0.00 | 0.00 | 78 | 1009.9 |
| 20260505070013 | 56 | 204 | 0.0 | 0.0 | 0.00 | 0.00 | 0.00 | 77 | 1009.9 |
| 20260505065014 | 57 | 204 | 0.0 | 0.0 | 0.00 | 0.00 | 0.00 | 77 | 1010.0 |
| 20260505064014 | 57 | 204 | 0.0 | 0.0 | 0.00 | 0.00 | 0.00 | 76 | 1010.1 |
| 20260505063013 | 58 | 204 | 0.0 | 0.0 | 0.00 | 0.00 | 0.00 | 75 | 1010.1 |
| 20260505062013 | 58 | 204 | 0.0 | 0.0 | 0.00 | 0.00 | 0.00 | 75 | 1010.2 |
| 20260505061013 | 58 | 204 | 0.0 | 0.0 | 0.00 | 0.00 | 0.00 | 75 | 1010.2 |
| 20260505060014 | 58 | 204 | 0.0 | 0.0 | 0.00 | 0.00 | 0.00 | 75 | 1010.3 |
| 20260505055013 | 58 | 204 | 0.0 | 3.0 | 0.00 | 0.00 | 0.00 | 74 | 1010.2 |
| 20260505054013 | 58 | 195 | 0.0 | 2.0 | 0.00 | 0.00 | 0.00 | 74 | 1010.3 |
| 20260505053013 | 58 | 195 | 0.0 | 0.0 | 0.00 | 0.00 | 0.00 | 73 | 1010.3 |
| 20260505052013 | 59 | 195 | 0.0 | 0.0 | 0.00 | 0.00 | 0.00 | 72 | 1010.3 |
| 20260505051013 | 59 | 195 | 0.0 | 0.0 | 0.00 | 0.00 | 0.00 | 71 | 1010.3 |
| 20260505041015 | 59 | 195 | 0.0 | 0.0 | 0.00 | 0.00 | 0.00 | 68 | 1010.0 |
| 20260505040018 | 59 | 195 | 0.0 | 0.0 | 0.00 | 0.00 | 0.00 | 66 | 1009.8 |
| 20260505035015 | 60 | 195 | 0.0 | 0.0 | 0.00 | 0.00 | 0.00 | 65 | 1009.9 |
| 20260505034015 | 60 | 195 | 0.0 | 0.0 | 0.00 | 0.00 | 0.00 | 64 | 1010.1 |
| 20260505033015 | 61 | 195 | 0.0 | 0.0 | 0.00 | 0.00 | 0.00 | 63 | 1009.9 |
| 20260505032015 | 62 | 195 | 0.0 | 1.0 | 0.00 | 0.00 | 0.00 | 61 | 1009.8 |
| 20260505031016 | 64 | 195 | 0.0 | 1.0 | 0.00 | 0.00 | 0.00 | 58 | 1009.9 |
| 20260505030016 | 65 | 195 | 0.0 | 0.0 | 0.00 | 0.00 | 0.00 | 55 | 1009.9 |
| 20260505025015 | 65 | 195 | 0.0 | 2.0 | 0.00 | 0.00 | 0.00 | 55 | 1009.9 |
| 20260505024015 | 65 | 195 | 1.0 | 2.0 | 0.00 | 0.00 | 0.00 | 54 | 1009.8 |
| 20260505023016 | 65 | 196 | 1.0 | 3.0 | 0.00 | 0.00 | 0.00 | 54 | 1009.7 |
| 20260505022015 | 64 | 200 | 0.0 | 1.0 | 0.00 | 0.00 | 0.00 | 57 | 1009.7 |
| 20260505021015 | 64 | 200 | 0.0 | 4.0 | 0.00 | 0.00 | 0.00 | 58 | 1009.8 |
| 20260505020015 | 64 | 200 | 0.0 | 0.0 | 0.00 | 0.00 | 0.00 | 58 | 1009.8 |
| 20260505015016 | 65 | 200 | 0.0 | 0.0 | 0.00 | 0.00 | 0.00 | 57 | 1009.8 |
| 20260505014015 | 65 | 200 | 0.0 | 0.0 | 0.00 | 0.00 | 0.00 | 56 | 1009.7 |
| 20260505013016 | 66 | 200 | 0.0 | 0.0 | 0.00 | 0.00 | 0.00 | 55 | 1009.6 |
| 20260505012015 | 67 | 200 | 0.0 | 0.0 | 0.00 | 0.00 | 0.00 | 53 | 1009.5 |
| 20260505011015 | 67 | 200 | 0.0 | 0.0 | 0.00 | 0.00 | 0.00 | 51 | 1009.6 |
| 20260505010016 | 68 | 200 | 0.0 | 0.0 | 0.00 | 0.00 | 0.00 | 50 | 1009.6 |
| 20260505005015 | 69 | 200 | 0.0 | 0.0 | 0.00 | 0.00 | 0.00 | 49 | 1009.4 |
| 20260505004014 | 70 | 200 | 0.0 | 0.0 | 0.00 | 0.00 | 0.00 | 46 | 1009.2 |
| 20260505003014 | 70 | 200 | 0.0 | 0.0 | 0.00 | 0.00 | 0.00 | 46 | 1009.2 |
| 20260505002014 | 71 | 200 | 0.0 | 1.0 | 0.00 | 0.00 | 0.00 | 45 | 1009.1 |
| 20260505001014 | 71 | 200 | 1.0 | 6.0 | 0.00 | 0.00 | 0.00 | 44 | 1009.1 |
| 20260505000014 | 72 | 198 | 1.0 | 4.0 | 0.00 | 0.00 | 0.00 | 42 | 1009.0 |
| 20260504235014 | 72 | 205 | 1.0 | 6.0 | 0.00 | 0.00 | 0.00 | 42 | 1008.9 |
| 20260504234013 | 73 | 205 | 1.0 | 5.0 | 0.00 | 0.00 | 0.00 | 41 | 1008.9 |
| 20260504233013 | 73 | 184 | 2.0 | 6.0 | 0.00 | 0.00 | 0.00 | 41 | 1008.8 |
| 20260504232014 | 73 | 192 | 3.0 | 7.0 | 0.00 | 0.00 | 0.00 | 41 | 1008.9 |
| 20260504231014 | 74 | 219 | 3.0 | 8.0 | 0.00 | 0.00 | 0.00 | 41 | 1008.8 |
| 20260504230014 | 74 | 180 | 5.0 | 10.0 | 0.00 | 0.00 | 0.00 | 39 | 1008.9 |
| 20260504225014 | 74 | 210 | 3.0 | 10.0 | 0.00 | 0.00 | 0.00 | 40 | 1008.8 |
| 20260504224014 | 74 | 181 | 4.0 | 12.0 | 0.00 | 0.00 | 0.00 | 40 | 1008.8 |
| 20260504223013 | 74 | 184 | 4.0 | 10.0 | 0.00 | 0.00 | 0.00 | 40 | 1008.8 |
| 20260504222014 | 75 | 182 | 4.0 | 9.0 | 0.00 | 0.00 | 0.00 | 40 | 1008.9 |
| 20260504221014 | 75 | 183 | 6.0 | 15.0 | 0.00 | 0.00 | 0.00 | 39 | 1008.9 |
| 20260504220015 | 74 | 253 | 4.0 | 10.0 | 0.00 | 0.00 | 0.00 | 40 | 1009.0 |
| 20260504215015 | 74 | 167 | 4.0 | 8.0 | 0.00 | 0.00 | 0.00 | 40 | 1008.8 |
| 20260504214013 | 75 | 227 | 5.0 | 8.0 | 0.00 | 0.00 | 0.00 | 39 | 1008.8 |
| 20260504213014 | 76 | 190 | 5.0 | 11.0 | 0.00 | 0.00 | 0.00 | 37 | 1008.9 |
| 20260504212014 | 76 | 182 | 5.0 | 10.0 | 0.00 | 0.00 | 0.00 | 38 | 1008.9 |
| 20260504211014 | 76 | 183 | 4.0 | 7.0 | 0.00 | 0.00 | 0.00 | 37 | 1008.6 |
| 20260504210015 | 77 | 219 | 4.0 | 9.0 | 0.00 | 0.00 | 0.00 | 35 | 1008.6 |
| 20260504205013 | 77 | 222 | 5.0 | 10.0 | 0.00 | 0.00 | 0.00 | 35 | 1008.6 |
| 20260504204015 | 77 | 215 | 4.0 | 8.0 | 0.00 | 0.00 | 0.00 | 34 | 1008.6 |
| 20260504203014 | 77 | 223 | 5.0 | 14.0 | 0.00 | 0.00 | 0.00 | 35 | 1008.8 |
| 20260504202014 | 77 | 234 | 6.0 | 12.0 | 0.00 | 0.00 | 0.00 | 35 | 1009.1 |
| 20260504201014 | 77 | 291 | 5.0 | 16.0 | 0.00 | 0.00 | 0.00 | 34 | 1009.2 |
| 20260504200014 | 77 | 252 | 5.0 | 11.0 | 0.00 | 0.00 | 0.00 | 35 | 1009.2 |
| 20260504195014 | 77 | 301 | 7.0 | 20.0 | 0.00 | 0.00 | 0.00 | 34 | 1009.4 |
| 20260504194014 | 77 | 290 | 5.0 | 13.0 | 0.00 | 0.00 | 0.00 | 35 | 1009.7 |
| 20260504193014 | 77 | 190 | 5.0 | 11.0 | 0.00 | 0.00 | 0.00 | 37 | 1009.7 |
| 20260504192014 | 76 | 283 | 7.0 | 20.0 | 0.00 | 0.00 | 0.00 | 35 | 1009.9 |
| 20260504191015 | 76 | 238 | 6.0 | 15.0 | 0.00 | 0.00 | 0.00 | 36 | 1010.0 |
| 20260504190015 | 76 | 204 | 6.0 | 15.0 | 0.00 | 0.00 | 0.00 | 35 | 1010.3 |
| 20260504185014 | 75 | 235 | 8.0 | 18.0 | 0.00 | 0.00 | 0.00 | 37 | 1010.4 |
| 20260504184014 | 76 | 272 | 6.0 | 14.0 | 0.00 | 0.00 | 0.00 | 35 | 1010.7 |
| 20260504183014 | 76 | 213 | 6.0 | 15.0 | 0.00 | 0.00 | 0.00 | 36 | 1010.7 |
| 20260504182014 | 75 | 299 | 6.0 | 10.0 | 0.00 | 0.00 | 0.00 | 37 | 1010.8 |
| 20260504181014 | 76 | 175 | 5.0 | 10.0 | 0.00 | 0.00 | 0.00 | 35 | 1010.9 |
| 20260504180015 | 76 | 242 | 4.0 | 13.0 | 0.00 | 0.00 | 0.00 | 37 | 1011.1 |
| 20260504175014 | 76 | 234 | 5.0 | 11.0 | 0.00 | 0.00 | 0.00 | 36 | 1011.4 |
| 20260504174014 | 75 | 240 | 4.0 | 9.0 | 0.00 | 0.00 | 0.00 | 38 | 1011.5 |
| 20260504173014 | 74 | 262 | 4.0 | 8.0 | 0.00 | 0.00 | 0.00 | 37 | 1011.6 |
| 20260504172014 | 74 | 245 | 4.0 | 9.0 | 0.00 | 0.00 | 0.00 | 38 | 1011.7 |
| 20260504171014 | 74 | 205 | 5.0 | 11.0 | 0.00 | 0.00 | 0.00 | 37 | 1011.8 |